Погода Камень-на-Оби

Погода Камень-на-Оби : погода сейчас, прогноз погоды и архив. Всё, что Вы хотите узнать о погоде Камень-на-Оби!

Хотите узнать прогноз погоды Камень-на-Оби? Тогда Вам сюда: Погода Камень-на-Оби

Поиск расширенной информации на нашем сайте:

Полезная информация: Свежая информация астра жилой комплекс новосибирск цены на квартиры у нас.

Другие новости

Новости СМИ2

Главная страница сайта

Новости сайта

03.07.2017

Напоминаем, что на нашем специализированном сайте Метеоцентр.Азия вы можете получить высокодетализированные автоматические прогнозы погоды по пунктам России, СНГ и мира в авиационном формате (включающие направление и скорость ветра, видимость, явления погоды, количество и форму облачности, нижнюю и верхнюю границу облачности).

Рекомендуем: Всегда готовы помочь: Ремонт винтовых блоков - мы знаем что вам предложить.

Погода Камень-на-Оби - сегодня

Время (UTC), дата Ветер
(°,м/с) 
Видим.   Явления Облачность Т
(°С)
Тd
(°С)
f(%) Тe
(°С)
Pmin
(гПа)
dP
(гПа)
Po
(мм)
O2
(г/м3)
Тmin Tmax R s Состояние
почвы
03 24.07.17 150 (ЮВ) 10 км  {туман}  3/0 верхняя 
[Ci]
+21.1 +17.8 81 +35  1009.4  -0.3  746  275           
06 24.07.17 190 (Ю) 10 км  {туман}  10/4 600 м верхняя 
[Sc|Ci]
+25.6 +15 52 +34  1008.1  -1.1  745  271           
09 24.07.17 180 (Ю) 10 км  слаб. ливневой дождь  10/10 600 м кучево-дожд. 
[Cb cap]
+24.2 +16.8 63 +36  1007.1  -1  744  272           
12 24.07.17 140 (ЮВ) 10 км  в посл. час ливневой дождь  10/10 600 м кучево-дожд. 
[Cb cap]
+24.7 +16.5 60 +36  1005.1  -1.9  743  271    +26  0.0     
15 24.07.17 130 (ЮВ) 10 км    9/9 600 м кучево-дожд. 
[Cb cap]
+22 +16.8 72 +34  1003.5  -1.7  742  273           
18 24.07.17 130 (ЮВ) 7-11{11}  10 км  гроза без осадков{ливн. осадки}  8/8 600 м кучево-дожд. 
[Cb cap]
+20.3 +16.8 80 +33  1001.1  -2.5  740  274           
21 24.07.17 150 (ЮВ) 2{12}  10 км    3/3 600 м 
[Sc]
+18.6 +15.5 82 +30  999.9  -1.3  739  275           
00 25.07.17 260 (З) 10 км    6/0 верхняя 
[Cc]
+17.1 +14.5 85 +26  1001.2  1.2  740  277  +16.4    0.0    влажная 
03 25.07.17 260 (З) 10 км    4/3 1000 м верхняя 
[Cu hum|Cc]
+21.5 +14.9 66 +30  1001.9  740  273           
06 25.07.17 270 (З) 5{10}  10 км    8/8 1000 м 
[Cu hum]
+23.4 +15 59 +32  1002.3  0.5  741  272           
09 25.07.17 290 (З) 5{12}  10 км    8/8 1000 м 
[Cu hum]
+23.7 +14.5 56 +32  1003.1  0.9  741  272           
12 25.07.17 320 (СЗ) 10 км    8/3 1000 м средняя 
[Cu hum|Ac As]
+23.4 +15.7 62 +34  1003.4  0.2  741  272    +25.1       
15 25.07.17 250 (З) 10 км    6/0 средняя, верхняя 
[Ac As|Ci fib]
+19.7 +16.6 82 +33  1004.2  0.6  742  275           
18 25.07.17 240 (ЮЗ) 10 км    3/0 средняя 
[Ac As]
+16.6 +14.7 89 +25  1004.8  0.4  742  279           
21 25.07.17 250 (З) 10 км    3/0 верхняя 
[Ci fib]
+15.6 +13.8 89 +24  1005.3  0.5  743  280           
00 26.07.17 200 (Ю) 4000 м  дымка  3/0 средняя 
[Ac trans]
+15.9 +14.4 91 +25  1005.8  0.5  743  280  +13.5        влажная 
03 26.07.17 230 (ЮЗ) 10 км    ясно 
+24.3 +15.9 59 +35  1005.6  0.2  743  272           
06 26.07.17 270 (З) 10 км    6/6 600 м верхняя 
[Cu hum|Ci fib]
+25.5 +15.2 53 +35  1005.7  0.2  743  271           
09 26.07.17 310 (СЗ) 10 км    6/4 600 м верхняя 
[Cu hum|Ci]
+27.2 +14.9 47 +36  1005.3  -0.4  743  269           
12 26.07.17 250 (З) 10 км    4/1 600 м верхняя 
[Cu hum|Ci]
+27.8 +14.9 45 +37  1004.8  -0.4  743  269    +28.2       
15 26.07.17 160 (Ю) 10 км    6/0 средняя 
[As op]
+23.6 +16.8 66 +36  1004.7  -0.3  742  272           
18 26.07.17 110 (В) 10 км    ясно 
+19.8 +17.9 89 +35  1005.4  0.5  743  275           
21 26.07.17 140 (ЮВ) 10 км    ясно 
+16.9 +15.7 93 +28  1004.7  -0.8  742  278           
00 27.07.17 тихо ()   10 км    6/1 600 м средняя, верхняя 
[Cu hum|As op|Ci fib]
+17.8 +16.8 94 +30  1004.6  -0.1  742  277  +16.6        сухая 
03 27.07.17 140 (ЮВ) 10 км    9/3 600 м средняя 
[Sc|As op]
+23.5 +17.5 69 +37  1003.7  -0.6  742  271           
Время (UTC), дата Ветер
(°,м/с) 
Видим.   Явления Облачность Т
(°С)
Тd
(°С)
f(%) Тe
(°С)
Pmin
(гПа)
dP
(гПа)
Po
(мм)
O2
(г/м3)
Тmin Tmax R s Состояние
почвы

Для получения пояснительной информации подведите курсор к названию столбца.

ПОГОДА Камень-на-Оби - архив

Всё, что Вы хотите узнать о погоде Камень-на-Оби - удобно и подробно!

Выберите нужную дату (начиная с 1 января 2015* года) и нажмите кнопку "Найти".
Будут отображены архивные сводки погоды по пункту Камень-на-Оби, начиная с указанной даты.


Отображать данные в формате CSV (для использования в таблицах Excel)


Внимание! Наш архив погоды предназначен исключительно для личного некоммерческого использования в познавательных целях. Если Вам необходимы официальные справки о состоянии погоды (для производственных, юридических, коммерческих и т.п. целей), обращайтесь в органы Росгидромета.

*Примечание: данная дата относится к архиву по метеостанциям СССР (Россия, СНГ, Балтия).
Архив по метеостанциям Зарубежной Европы и Азии (кроме Китая) хранится 10 дней, по другим регионам земного шара (Китай, Африка, Америка, Австралия, Океания) - 1 день.

Камень-на-Оби - район местоположения метеостанции


Название, широта, долгота, высота метеостанции:
Камень-на-Оби 53.8°ш. 81.3°д. 129 м над ур. моря [Российская Федерация]

Дополнительная информация

В oтличие oт бoльшинства пoгoдных сайтoв мы публикуем пoдрoбную метеoинфoрмацию в детальнoм прoфессиoнальнoм фoрмате.

Характеристики температуры и влажнoсти вoздуха измеряются на высoте 2 м в тени вдали oт зданий и деревьев.
Скoрoсть ветра измеряется на высoте 10 м (на урoвне рoста челoвека скoрoсть ветра ниже в 1.5-2 раза). Если метеoстанция нахoдится в гoрoде или в лесу, тo скoрoсть ветра занижена на 2-4 м/с пo сравнению с oткрытым местoм. Скoрoсть ветра над акватoриями крупных рек и oзёр, а также на вершинах хoлмoв на 2-5 м/с выше, чем в oбычных услoвиях.
Атмoсфернoе давление в разных тoчках местнoсти мoжет значительнo oтличаться oт давления на метеoстанции, в зависимoсти oт услoвий рельефа (при пoдъёме на 10 м давление пoнижается примернo на 1 мм рт.ст.).